When you browse on this site, cookies collect data to enhance your experience and personalize the content and advertising you see.
Visit our Privacy Policy to learn more. By continuing to use the site, you agree to this use of cookies and data.
  • In Netherlands
  • List of Countries
  • For 7 days
  • Water Temperature
  • Weather Map
  • Weather Widgets
  • user-avatar
    Login

    Hourly Weather Klevischi

    Today, 20 January, Monday

    Time Temperature Precipitation Wind Pressure Humidity
    00:00 0°C° 0 mm 5 mps 752 mmHg 90%
    01:00 0°C° 0 mm 5 mps 752 mmHg 88%
    02:00 0°C° 0 mm 5 mps 752 mmHg 86%
    03:00 0°C° 0 mm 5 mps 752 mmHg 89%
    04:00 0°C° 0 mm 5 mps 752 mmHg 92%
    05:00 -1°C° 0 mm 5 mps 752 mmHg 94%
    06:00 -1°C° 0.1 mm 5 mps 752 mmHg 95%
    07:00 -1°C° 0.1 mm 5 mps 752 mmHg 96%
    08:00 -1°C° 0.1 mm 5 mps 752 mmHg 96%
    09:00 -1°C° 0.1 mm 5 mps 752 mmHg 96%
    10:00 -1°C° 0.1 mm 5 mps 752 mmHg 95%
    11:00 -1°C° 0.1 mm 5 mps 752 mmHg 95%
    12:00 -1°C° 0.1 mm 5 mps 752 mmHg 95%
    13:00 -1°C° 0.1 mm 5 mps 752 mmHg 95%
    14:00 -1°C° 0.1 mm 5 mps 752 mmHg 96%
    15:00 -1°C° 0 mm 5 mps 752 mmHg 95%
    16:00 -1°C° 0 mm 5 mps 751 mmHg 95%
    17:00 -1°C° 0 mm 5 mps 751 mmHg 95%
    18:00 -1°C° 0 mm 5 mps 750 mmHg 92%
    19:00 -1°C° 0 mm 5 mps 750 mmHg 88%
    20:00 0°C° 0 mm 5 mps 750 mmHg 85%
    21:00 -1°C° 0 mm 5 mps 749 mmHg 84%
    22:00 -1°C° 0 mm 5 mps 749 mmHg 83%
    23:00 -2°C° 0 mm 4 mps 748 mmHg 82%

    Tomorrow, 21 January, Tuesday

    Time Temperature Precipitation Wind Pressure Humidity
    00:00 -2°C° 0 mm 5 mps 747 mmHg 84%
    01:00 -2°C° 0 mm 5 mps 747 mmHg 87%
    02:00 -2°C° 0 mm 5 mps 746 mmHg 89%
    03:00 -1°C° 0.4 mm 5 mps 745 mmHg 89%
    04:00 -2°C° 0.4 mm 6 mps 744 mmHg 90%
    05:00 -1°C° 0.4 mm 6 mps 742 mmHg 90%
    06:00 -1°C° 0.4 mm 6 mps 742 mmHg 90%
    07:00 -1°C° 0.4 mm 6 mps 741 mmHg 90%
    08:00 +1°C° 0.4 mm 6 mps 740 mmHg 89%
    09:00 +2°C° 0.1 mm 6 mps 740 mmHg 88%
    10:00 +2°C° 0.1 mm 7 mps 739 mmHg 87%
    11:00 +3°C° 0.1 mm 7 mps 738 mmHg 85%
    12:00 +3°C° 0 mm 6 mps 738 mmHg 85%
    13:00 +3°C° 0 mm 6 mps 738 mmHg 84%
    14:00 +3°C° 0 mm 5 mps 738 mmHg 83%
    15:00 +3°C° 0.2 mm 5 mps 737 mmHg 85%
    16:00 +3°C° 0.2 mm 5 mps 736 mmHg 87%
    17:00 +2°C° 0.2 mm 5 mps 736 mmHg 89%
    18:00 +2°C° 0.4 mm 5 mps 735 mmHg 89%
    19:00 +1°C° 0.4 mm 5 mps 735 mmHg 89%
    20:00 +1°C° 0.4 mm 5 mps 735 mmHg 90%
    21:00 0°C° 0.1 mm 5 mps 735 mmHg 85%
    22:00 -1°C° 0.1 mm 6 mps 735 mmHg 80%
    23:00 -2°C° 0.1 mm 6 mps 735 mmHg 75%

    Day after tomorrow, 22 January, Wednesday

    Time Temperature Precipitation Wind Pressure Humidity
    00:00 -2°C° 0 mm 6 mps 735 mmHg 75%
    01:00 -3°C° 0 mm 6 mps 735 mmHg 75%
    02:00 -4°C° 0 mm 5 mps 735 mmHg 75%
    03:00 -4°C° 0 mm 5 mps 735 mmHg 77%
    04:00 -4°C° 0 mm 6 mps 734 mmHg 79%
    05:00 -4°C° 0 mm 6 mps 733 mmHg 81%
    06:00 -4°C° 0.1 mm 6 mps 733 mmHg 82%
    07:00 -4°C° 0.1 mm 6 mps 732 mmHg 83%
    08:00 -4°C° 0.1 mm 6 mps 732 mmHg 83%
    09:00 -4°C° 0.2 mm 6 mps 732 mmHg 78%
    10:00 -4°C° 0.2 mm 6 mps 732 mmHg 73%
    11:00 -3°C° 0.2 mm 6 mps 732 mmHg 68%
    12:00 -2°C° 0 mm 5 mps 732 mmHg 68%
    13:00 -4°C° 0 mm 5 mps 732 mmHg 68%
    14:00 -4°C° 0 mm 5 mps 731 mmHg 67%
    15:00 -4°C° 0 mm 5 mps 732 mmHg 69%
    16:00 -5°C° 0 mm 5 mps 732 mmHg 71%
    17:00 -5°C° 0 mm 5 mps 732 mmHg 73%
    18:00 -5°C° 0 mm 6 mps 732 mmHg 76%
    19:00 -5°C° 0 mm 6 mps 732 mmHg 78%
    20:00 -6°C° 0 mm 6 mps 733 mmHg 80%
    21:00 -6°C° 0 mm 6 mps 733 mmHg 79%
    22:00 -8°C° 0 mm 6 mps 734 mmHg 77%
    23:00 -8°C° 0 mm 6 mps 734 mmHg 76%

    23 January, Thursday

    Time Temperature Precipitation Wind Pressure Humidity
    00:00 -8°C° 0 mm 6 mps 735 mmHg 73%
    01:00 -9°C° 0 mm 6 mps 736 mmHg 69%
    02:00 -9°C° 0 mm 6 mps 737 mmHg 65%
    03:00 -9°C° 0 mm 6 mps 737 mmHg 65%
    04:00 -11°C° 0 mm 7 mps 738 mmHg 66%
    05:00 -11°C° 0 mm 7 mps 738 mmHg 66%
    06:00 -10°C° 0 mm 6 mps 739 mmHg 65%
    07:00 -10°C° 0 mm 6 mps 739 mmHg 63%
    08:00 -11°C° 0 mm 6 mps 740 mmHg 62%
    09:00 -11°C° 0 mm 6 mps 741 mmHg 62%
    10:00 -11°C° 0 mm 6 mps 741 mmHg 61%
    11:00 -11°C° 0 mm 6 mps 742 mmHg 60%
    12:00 -11°C° 0 mm 6 mps 742 mmHg 59%
    13:00 -11°C° 0 mm 5 mps 743 mmHg 59%
    14:00 -10°C° 0 mm 5 mps 743 mmHg 58%
    15:00 -10°C° 0 mm 4 mps 744 mmHg 60%
    16:00 -9°C° 0 mm 3 mps 744 mmHg 62%
    17:00 -9°C° 0 mm 3 mps 745 mmHg 64%
    18:00 -9°C° 0 mm 3 mps 745 mmHg 67%
    19:00 -8°C° 0 mm 2 mps 744 mmHg 69%
    20:00 -8°C° 0 mm 2 mps 744 mmHg 71%
    21:00 -9°C° 0 mm 3 mps 744 mmHg 69%
    22:00 -8°C° 0 mm 3 mps 743 mmHg 67%
    23:00 -8°C° 0 mm 3 mps 743 mmHg 65%

    24 January, Friday

    Time Temperature Precipitation Wind Pressure Humidity
    00:00 -8°C° 0.1 mm 4 mps 742 mmHg 74%
    01:00 -8°C° 0.1 mm 4 mps 741 mmHg 83%
    02:00 -7°C° 0.1 mm 5 mps 740 mmHg 92%
    03:00 -7°C° 0.3 mm 5 mps 739 mmHg 93%
    04:00 -6°C° 0.3 mm 5 mps 737 mmHg 93%
    05:00 -6°C° 0.3 mm 5 mps 736 mmHg 93%
    06:00 -5°C° 0.3 mm 5 mps 735 mmHg 93%
    07:00 -5°C° 0.3 mm 5 mps 735 mmHg 92%
    08:00 -4°C° 0.3 mm 5 mps 734 mmHg 92%
    09:00 -2°C° 0.2 mm 5 mps 734 mmHg 87%
    10:00 -2°C° 0.2 mm 6 mps 734 mmHg 82%
    11:00 -2°C° 0.2 mm 6 mps 734 mmHg 77%
    12:00 -2°C° 0 mm 6 mps 735 mmHg 76%
    13:00 -2°C° 0 mm 6 mps 735 mmHg 75%
    14:00 -2°C° 0 mm 6 mps 736 mmHg 74%
    15:00 -2°C° 0 mm 5 mps 736 mmHg 76%
    16:00 -4°C° 0 mm 5 mps 737 mmHg 78%
    17:00 -4°C° 0 mm 5 mps 737 mmHg 80%
    18:00 -3°C° 0 mm 4 mps 738 mmHg 82%
    19:00 -4°C° 0 mm 4 mps 738 mmHg 84%
    20:00 -4°C° 0 mm 4 mps 738 mmHg 86%
    21:00 -4°C° 0 mm 3 mps 739 mmHg 88%
    22:00 -4°C° 0 mm 3 mps 739 mmHg 89%
    23:00 -4°C° 0 mm 3 mps 739 mmHg 91%

    25 January, Saturday

    Time Temperature Precipitation Wind Pressure Humidity
    00:00 -4°C° 0 mm 3 mps 739 mmHg 91%
    01:00 -4°C° 0 mm 3 mps 739 mmHg 91%
    02:00 -4°C° 0 mm 3 mps 739 mmHg 91%
    03:00 -3°C° 0 mm 2 mps 739 mmHg 92%
    04:00 -4°C° 0 mm 2 mps 738 mmHg 93%
    05:00 -4°C° 0 mm 2 mps 738 mmHg 94%
    06:00 -4°C° 0 mm 2 mps 738 mmHg 94%
    07:00 -3°C° 0 mm 2 mps 738 mmHg 93%
    08:00 -3°C° 0 mm 2 mps 737 mmHg 93%
    09:00 -2°C° 0.1 mm 2 mps 737 mmHg 93%
    10:00 -2°C° 0.1 mm 2 mps 737 mmHg 94%
    11:00 -1°C° 0.1 mm 3 mps 737 mmHg 94%
    12:00 0°C° 0 mm 3 mps 737 mmHg 94%
    13:00 0°C° 0 mm 3 mps 737 mmHg 94%
    14:00 0°C° 0 mm 4 mps 737 mmHg 93%
    15:00 +1°C° 0 mm 3 mps 737 mmHg 91%
    16:00 0°C° 0 mm 3 mps 738 mmHg 89%
    17:00 0°C° 0 mm 3 mps 738 mmHg 87%
    18:00 0°C° 0 mm 3 mps 738 mmHg 89%
    19:00 -1°C° 0 mm 3 mps 738 mmHg 91%
    20:00 -2°C° 0 mm 3 mps 739 mmHg 92%
    21:00 -2°C° 0 mm 3 mps 739 mmHg 93%
    22:00 -2°C° 0 mm 3 mps 739 mmHg 93%
    23:00 -2°C° 0 mm 3 mps 740 mmHg 94%
    Show more